Location: Hamilton
(37.7830°S, 175.2830°E)
Time: 13:34:39
(UTC+13:00)

Cosmos 1633 - Pass Details

Date: 24 January 2019
Orbit: 464 x 484 km, 82.5° (Epoch: 13 October)

Event Time Altitude Azimuth Distance (km) Brightness Sun altitude
Rises 22:58:54 0° 194° (SSW) 2,544 7.3 -22.7°
Reaches altitude 10° 23:01:03 10° 199° (SSW) 1,660 6.2 -23.0°
Enters shadow 23:04:32 47° 274° (W) 638 3.3 -23.4°
